#timestamp,LO_Frequency,Hit,StdDev 
1540360815.8,286046999.3,N
1540360835.6,286046999.1,N
1540360855.5,286046997.6,N
1540360875.3,286046993.3,N
1540360895.1,286046995.1,N
1540360915.9,286046995.8,N
1540360935.7,286046993.4,N
1540360985.6,286046994.5,E
1540360995.5,286046995.7,N
1540361015.3,286046998.4,P
1540361035.2,286046998.8,N
1540361055.9,286046999.0,N
1540361075.7,286047001.2,N
1540361095.6,286046998.7,N
1540361115.4,286046999.3,N
1540361135.2,286046999.0,N
1540361155.1,286046996.5,N
1540361156.0,286046996.5,N
1540361175.8,286046997.5,N
1540361195.7,286046997.9,N
1540361215.5,286046995.8,N
1540361235.3,286046997.5,N
1540361255.2,286046995.0,Y
1540361275.0,286046999.2,P
1540361275.9,286046999.2,N
1540361295.8,286046996.7,P
1540361315.6,286046996.5,Y
1540361335.4,286047001.0,P
1540361355.3,286047001.1,N
1540361375.1,286046998.1,N
1540361395.8,286046998.2,N
1540361415.7,286047001.1,N
1540361435.5,286046999.4,N
1540361455.4,286046998.7,N
1540361475.2,286046998.1,N
1540361495.0,286046998.2,N
1540361495.9,286046998.2,N
1540361515.8,286046998.7,N
1540361535.6,286046999.2,N
1540361555.4,286046999.6,N
1540361575.3,286046999.1,N
1540361595.1,286046999.0,N
1540361615.9,286046998.7,N
1540361635.7,286046997.2,N
1540361655.5,286046999.2,N
1540361675.4,286046999.2,N
1540361695.2,286046996.8,Y
1540361715.0,286047000.8,P
1540361715.9,286047000.8,N
1540361735.8,286047001.1,N
1540361755.6,286046998.3,N
1540361775.5,286046998.9,N
1540361795.3,286046998.4,N
1540361815.1,286046998.7,N
1540361835.9,286046998.3,N
1540361855.7,286046998.7,N
1540361875.5,286047001.2,N
1540361895.4,286047000.8,N
1540361915.2,286047000.7,N
1540361935.1,286047000.8,N
1540361936.0,286047000.8,N
1540361955.8,286047001.2,N
1540361975.6,286047000.9,N
1540361995.5,286047000.6,N
1540362015.3,286047000.0,N
1540362035.1,286047000.3,N
1540362055.9,286047002.7,N
1540362075.7,286047000.4,N
1540362095.6,286047000.5,N
1540362115.4,286047001.0,N
1540362135.2,286047000.5,N
1540362155.1,286047001.1,N
1540362156.0,286047001.1,N
1540362175.8,286047001.2,N
1540362195.6,286046999.9,N
1540362215.5,286047000.8,N
1540362235.3,286047000.2,N
1540362255.2,286046999.8,N
1540362275.9,286047002.1,N
1540362295.7,286047003.9,Y
1540362315.6,286047002.5,P
1540362335.4,286047000.0,N
1540362355.2,286047000.1,N
1540362375.1,286047002.4,N
1540362376.0,286047002.4,N
1540362395.8,286047002.3,N
1540362415.7,286047002.7,N
1540362435.5,286047003.6,Y
1540362455.3,286047001.6,P
1540362475.2,286047001.7,P
1540362495.0,286047005.9,P
1540362495.9,286047005.9,Y
1540362515.8,286047001.8,P
1540362535.6,286047004.2,P
1540362555.4,286047001.9,N
1540362575.3,286047004.0,Y
1540362595.1,286047001.2,P
1540362615.8,286047000.7,N
1540362635.7,286047000.5,N
1540362655.5,286047002.3,N
1540362675.4,286047001.4,N
1540362695.2,286047001.9,N
1540362715.0,286047001.6,N
1540362715.9,286047001.6,N
1540362735.8,286047004.3,Y
1540362755.6,286047002.2,P
1540362775.5,286047002.1,P
1540362795.3,286047002.6,P
1540362815.1,286047001.3,Y
1540362835.9,286047000.0,P
1540362855.7,286047004.4,P
1540362875.5,286047001.3,N
1540362895.4,286047002.0,N
1540362915.2,286047001.8,N
1540362935.1,286047001.8,N
1540362936.0,286047001.8,N
1540362955.8,286047003.7,Y
1540362975.6,286047002.7,P
1540362995.5,286047001.6,P
1540363015.3,286047001.9,P
1540363035.1,286047002.1,Y
1540363055.9,286047000.6,P
1540363075.7,286047001.0,N
1540363095.6,286047000.4,N
1540363115.4,286047000.9,N
1540363135.2,286047000.2,N
1540363155.1,286047001.9,Y
1540363156.0,286047001.9,P
1540363175.8,286047001.5,N
1540363195.7,286047002.3,P
1540363215.5,286047001.8,Y
1540363235.3,286047001.6,P
1540363255.2,286047002.1,P
1540363275.0,286047003.8,P
1540363275.9,286047003.8,Y
1540363295.8,286047001.0,P
1540363315.6,286047000.2,N
1540363335.4,286047000.8,N
1540363355.3,286047000.6,N
1540363375.1,286047000.4,N
1540363395.8,286047002.0,N
1540363415.7,286047000.3,N
1540363435.5,286047004.3,Y
1540363455.4,286047002.5,P
1540363475.2,286047002.8,P
1540363495.0,286047002.0,N
1540363495.9,286047002.0,N
1540363515.8,286047001.4,N
1540363535.6,286047003.5,Y
1540363555.4,286047000.4,P
1540363575.3,286047002.7,P
1540363595.1,286047000.2,N
1540363615.9,286047002.2,N
1540363635.7,286047002.2,N
1540363655.5,286047004.3,Y
1540363675.4,286047002.8,P
1540363695.2,286047002.0,P
1540363715.0,286047002.5,P
1540363716.0,286047002.5,Y
1540363735.8,286047001.4,P
1540363755.6,286047002.5,P
1540363775.5,286047002.5,P
1540363795.3,286047002.0,Y
1540363815.1,286047000.5,P
1540363835.9,286047002.6,P
1540363855.7,286047002.4,N
1540363875.6,286047001.5,N
1540363895.4,286047001.5,N
1540363915.2,286047002.3,Y
1540363935.1,286047000.2,P
1540363936.0,286047000.2,N
1540363955.8,286047002.7,P
1540363975.7,286047000.3,N
1540363995.5,286047002.8,N
1540364015.3,286047002.2,N
1540364035.2,286047001.9,N
1540364055.9,286047002.5,N
1540364075.7,286047001.5,N
1540364095.6,286047004.1,Y
1540364115.4,286047001.7,P
1540364135.2,286047001.8,P
1540364155.1,286047002.4,P
1540364156.0,286047002.4,Y
1540364175.8,286046998.8,P
1540364195.7,286046999.0,N
1540364215.5,286046998.7,N
1540364235.3,286047001.1,N
1540364255.2,286047000.7,N
1540364275.0,286047000.6,N
1540364275.9,286047000.6,N
1540364295.8,286046998.6,N
1540364315.6,286047000.3,N
1540364335.4,286046998.7,N
1540364355.3,286046998.7,N
1540364375.1,286046998.3,N
1540364395.8,286047000.0,N
